This demonstration page uses our WeatherBlox Daily Observations layout. Learn more.

Left ArrowRight Arrow

39.08367, -84.50855

Hourly Observations for December 24, 2015

Temp ( °F °C ) Dew Point ( °F °C ) Humidity (%) Winds ( mph kmh ) Pressure ( in mb ) Visibility ( mi km ) Precip ( " mm )
12:53 am 00:53 Mostly Cloudy 56 13.3 55 12.8 97 97 SW 5 7 29.61 1003 10 16 0.00 0.00
1:53 am 01:53 Mostly Clear 53 11.7 53 11.7 100 100 SW 5 7 29.65 1004 10 16 0.00 0.00
2:53 am 02:53 Mostly Clear 53 11.7 53 11.7 100 100 SW 6 9 29.68 1005 10 16 0.00 0.00
3:53 am 03:53 Clear 53 11.7 52 11.1 96 96 SW 8 13 29.71 1006 10 16 0.00 0.00
4:53 am 04:53 Clear 53 11.7 51 10.6 93 93 SW 12 19 29.78 1009 10 16 0.00 0.00
5:53 am 05:53 Clear 55 12.8 50 10 83 83 WSW 12 19 29.83 1010 10 16 0.00 0.00
6:53 am 06:53 Mostly Clear 49 9.4 40 4.4 71 71 NW 10 17 29.93 1014 10 16 0.00 0.00
7:53 am 07:53 Clear 46 7.8 39 3.9 77 77 NW 6 9 29.98 1015 10 16 0.00 0.00
8:53 am 08:53 Sunny 47 8.3 40 4.4 77 77 Calm 30.04 1017 10 16 0.00 0.00
9:53 am 09:53 Sunny 50 10 40 4.4 68 68 Calm 30.04 1017 10 16 0.00 0.00
10:53 am 10:53 Sunny 51 10.6 41 5 69 69 Calm 30.07 1018 10 16 0.00 0.00
11:53 am 11:53 Sunny 52 11.1 41 5 66 66 W 5 7 30.06 1018 10 16 0.00 0.00
12:53 pm 12:53 Sunny 55 12.8 42 5.6 62 62 SSW 5 7 30.03 1017 10 16 0.00 0.00
1:53 pm 13:53 Sunny 57 13.9 42 5.6 58 58 Calm 30.03 1017 10 16 0.00 0.00
2:53 pm 14:53 Sunny 60 15.6 43 6.1 53 53 Calm 30.03 1017 10 16 0.00 0.00
3:53 pm 15:53 Sunny 59 15 43 6.1 56 56 Calm 30.04 1017 10 16 0.00 0.00
4:53 pm 16:53 Sunny 57 13.9 42 5.6 58 58 ENE 3 6 30.03 1017 10 16 0.00 0.00
5:53 pm 17:53 Clear 49 9.4 44 6.7 83 83 Calm 30.06 1018 10 16 0.00 0.00
6:53 pm 18:53 Clear 44 6.7 43 6.1 96 96 Calm 30.06 1018 10 16 0.00 0.00
7:53 pm 19:53 Clear 45 7.2 43 6.1 93 93 S 3 6 30.06 1018 10 16 0.00 0.00
8:53 pm 20:53 Mostly Cloudy 44 6.7 43 6.1 96 96 Calm 30.07 1018 10 16 0.00 0.00
9:53 pm 21:53 Mostly Clear 44 6.7 43 6.1 96 96 Calm 30.08 1019 10 16 0.00 0.00
10:53 pm 22:53 Clear 46 7.8 44 6.7 93 93 Calm 30.07 1018 10 16 0.00 0.00
11:53 pm 23:53 Clear 46 7.8 45 7.2 96 96 Calm 30.08 1019 10 16 0.00 0.00

Powered by AerisWeather